sat.trackr.live / text

‹ back to catalog

STARLINK-31536

NORAD 59192 · 2024-045Q

PAYLOAD ACTIVE UNKNOWN

§ Identity

Operator
Country
US
Launch date
2024-03-10
Launch site
AFETR
Launch vehicle
Mass (kg)
RCS (m²)

Purposes: comms

External: N2YO · Heavens-Above · Gunter

§ Orbital elements

Epoch: 2026-05-25T04:00:03.998880Z

Period
94.27 min
Inclination
43.0010°
Eccentricity
0.0001463
Mean motion
15.27548426 rev/d
Perigee alt
482.1 km
Apogee alt
484.1 km
Semi-major
6,861.3 km
B*
1.8903e-3
RAAN
20.6344°
Arg perigee
282.1005°
Mean anomaly
218.3519°
Rev number
585

§ Raw data

STARLINK-315361 59192U 24045Q   26145.16671295  .00052072  00000+0  18903-2 0  99942 59192  43.0010  20.6344 0001463 282.1005 218.3519 15.27548426  5858

JSON: /api/v1/satellites/59192 · /tle

For live sub-satellite position, see the globe view (requires WebGL).

§ Visibility from observer

Set your observer location to see the next 7 days of passes ≥ 10°. The values pass through the URL so the page stays shareable.

No JS? Fill the form by hand. The geolocation button needs JavaScript.